When you browse on this site, cookies collect data to enhance your experience and personalize the content and advertising you see.
Visit our Privacy Policy to learn more. By continuing to use the site, you agree to this use of cookies and data.
  • In Austria
  • List of Countries
  • For 7 days
  • Water Temperature
  • Satellite Maps
  • Weather Map
  • News
  • Weather Widgets
  • user-avatar
    Login

    Hourly Weather Rjukan

    Today, 20 July, Saturday

    Time Temperature Precipitation Wind Pressure Humidity
    00:00 +6°C° 0 mm 0 mps 670 mmHg 97%
    01:00 +5°C° 0 mm 0 mps 670 mmHg 98%
    02:00 +5°C° 0 mm 0 mps 670 mmHg 98%
    03:00 +5°C° 0 mm 0 mps 670 mmHg 98%
    04:00 +7°C° 0 mm 1 mps 670 mmHg 98%
    05:00 +8°C° 0 mm 1 mps 670 mmHg 97%
    06:00 +9°C° 0 mm 1 mps 671 mmHg 95%
    07:00 +10°C° 0 mm 1 mps 671 mmHg 93%
    08:00 +10°C° 0.1 mm 2 mps 671 mmHg 90%
    09:00 +12°C° 0.1 mm 2 mps 671 mmHg 86%
    10:00 +11°C° 0.1 mm 3 mps 672 mmHg 82%
    11:00 +11°C° 0 mm 3 mps 671 mmHg 78%
    12:00 +12°C° 0 mm 4 mps 671 mmHg 73%
    13:00 +12°C° 0 mm 4 mps 671 mmHg 69%
    14:00 +11°C° 0.3 mm 4 mps 671 mmHg 76%
    15:00 +10°C° 0.3 mm 3 mps 670 mmHg 84%
    16:00 +9°C° 0.3 mm 2 mps 670 mmHg 92%
    17:00 +9°C° 0.5 mm 2 mps 670 mmHg 94%
    18:00 +9°C° 0.5 mm 2 mps 669 mmHg 95%
    19:00 +8°C° 0.5 mm 2 mps 669 mmHg 97%
    20:00 +8°C° 1 mm 2 mps 669 mmHg 98%
    21:00 +8°C° 1 mm 2 mps 669 mmHg 98%
    22:00 +9°C° 1 mm 1 mps 669 mmHg 99%
    23:00 +9°C° 1.5 mm 1 mps 669 mmHg 99%

    Tomorrow, 21 July, Sunday

    Time Temperature Precipitation Wind Pressure Humidity
    00:00 +9°C° 1.5 mm 1 mps 669 mmHg 99%
    01:00 +9°C° 1.5 mm 1 mps 669 mmHg 99%
    02:00 +10°C° 1.2 mm 1 mps 669 mmHg 99%
    03:00 +10°C° 1.2 mm 1 mps 669 mmHg 99%
    04:00 +10°C° 1.2 mm 1 mps 668 mmHg 99%
    05:00 +9°C° 0.1 mm 0 mps 668 mmHg 97%
    06:00 +9°C° 0.1 mm 0 mps 669 mmHg 96%
    07:00 +10°C° 0.1 mm 0 mps 669 mmHg 95%
    08:00 +11°C° 0.1 mm 0 mps 669 mmHg 91%
    09:00 +13°C° 0.1 mm 1 mps 669 mmHg 88%
    10:00 +14°C° 0.1 mm 1 mps 670 mmHg 84%
    11:00 +14°C° 1 mm 1 mps 670 mmHg 82%
    12:00 +15°C° 1 mm 2 mps 670 mmHg 80%
    13:00 +16°C° 1 mm 2 mps 671 mmHg 78%
    14:00 +15°C° 1.5 mm 2 mps 671 mmHg 81%
    15:00 +15°C° 1.5 mm 2 mps 671 mmHg 83%
    16:00 +14°C° 1.5 mm 2 mps 671 mmHg 85%
    17:00 +14°C° 0.8 mm 2 mps 671 mmHg 84%
    18:00 +14°C° 0.8 mm 2 mps 671 mmHg 83%
    19:00 +14°C° 0.8 mm 2 mps 671 mmHg 82%
    20:00 +12°C° 0 mm 2 mps 671 mmHg 84%
    21:00 +10°C° 0 mm 3 mps 671 mmHg 87%
    22:00 +9°C° 0 mm 3 mps 671 mmHg 89%
    23:00 +8°C° 0 mm 2 mps 671 mmHg 89%

    Day after tomorrow, 22 July, Monday

    Time Temperature Precipitation Wind Pressure Humidity
    00:00 +7°C° 0 mm 2 mps 671 mmHg 90%
    01:00 +6°C° 0 mm 2 mps 671 mmHg 90%
    02:00 +6°C° 0 mm 2 mps 671 mmHg 90%
    03:00 +5°C° 0 mm 2 mps 671 mmHg 90%
    04:00 +5°C° 0 mm 2 mps 671 mmHg 90%
    05:00 +7°C° 0 mm 1 mps 671 mmHg 84%
    06:00 +9°C° 0 mm 1 mps 672 mmHg 79%
    07:00 +10°C° 0 mm 1 mps 672 mmHg 74%
    08:00 +12°C° 0 mm 1 mps 672 mmHg 68%
    09:00 +13°C° 0 mm 1 mps 672 mmHg 63%
    10:00 +14°C° 0 mm 2 mps 673 mmHg 57%
    11:00 +14°C° 0.1 mm 2 mps 672 mmHg 61%
    12:00 +13°C° 0.1 mm 2 mps 672 mmHg 66%
    13:00 +13°C° 0.1 mm 2 mps 672 mmHg 71%
    14:00 +12°C° 0.6 mm 2 mps 671 mmHg 79%
    15:00 +10°C° 0.6 mm 2 mps 671 mmHg 88%
    16:00 +9°C° 0.6 mm 2 mps 671 mmHg 96%
    17:00 +9°C° 0.3 mm 2 mps 671 mmHg 97%
    18:00 +9°C° 0.3 mm 2 mps 671 mmHg 97%
    19:00 +10°C° 0.3 mm 2 mps 671 mmHg 98%
    20:00 +10°C° 0 mm 2 mps 671 mmHg 98%
    21:00 +10°C° 0 mm 2 mps 671 mmHg 98%
    22:00 +10°C° 0 mm 2 mps 671 mmHg 98%
    23:00 +10°C° 0 mm 2 mps 671 mmHg 98%

    23 July, Tuesday

    Time Temperature Precipitation Wind Pressure Humidity
    00:00 +10°C° 0 mm 2 mps 671 mmHg 98%
    01:00 +10°C° 0 mm 2 mps 671 mmHg 98%
    02:00 +10°C° 0.1 mm 2 mps 672 mmHg 98%
    03:00 +12°C° 0.1 mm 2 mps 672 mmHg 98%
    04:00 +12°C° 0.1 mm 2 mps 672 mmHg 97%
    05:00 +12°C° 0 mm 2 mps 672 mmHg 96%
    06:00 +13°C° 0 mm 2 mps 672 mmHg 94%
    07:00 +14°C° 0 mm 2 mps 673 mmHg 92%
    08:00 +15°C° 0 mm 2 mps 673 mmHg 87%
    09:00 +16°C° 0 mm 3 mps 674 mmHg 82%
    10:00 +17°C° 0 mm 3 mps 674 mmHg 77%
    11:00 +17°C° 0 mm 3 mps 674 mmHg 76%
    12:00 +17°C° 0 mm 3 mps 674 mmHg 75%
    13:00 +17°C° 0 mm 3 mps 675 mmHg 74%
    14:00 +18°C° 0 mm 4 mps 675 mmHg 69%
    15:00 +19°C° 0 mm 5 mps 675 mmHg 65%
    16:00 +20°C° 0 mm 5 mps 675 mmHg 60%
    17:00 +20°C° 0 mm 5 mps 675 mmHg 63%
    18:00 +19°C° 0 mm 5 mps 675 mmHg 66%
    19:00 +18°C° 0 mm 4 mps 675 mmHg 69%
    20:00 +16°C° 0 mm 3 mps 674 mmHg 76%
    21:00 +13°C° 0 mm 3 mps 674 mmHg 83%
    22:00 +12°C° 0 mm 2 mps 674 mmHg 90%
    23:00 +12°C° 0 mm 2 mps 674 mmHg 91%

    24 July, Wednesday

    Time Temperature Precipitation Wind Pressure Humidity
    00:00 +10°C° 0 mm 2 mps 674 mmHg 92%
    01:00 +10°C° 0 mm 2 mps 674 mmHg 93%
    02:00 +10°C° 0 mm 2 mps 674 mmHg 93%
    03:00 +9°C° 0 mm 2 mps 674 mmHg 93%
    04:00 +9°C° 0 mm 2 mps 674 mmHg 94%
    05:00 +12°C° 0 mm 2 mps 674 mmHg 88%
    06:00 +14°C° 0 mm 2 mps 675 mmHg 83%
    07:00 +15°C° 0 mm 2 mps 676 mmHg 78%
    08:00 +17°C° 0 mm 2 mps 676 mmHg 70%
    09:00 +20°C° 0 mm 1 mps 677 mmHg 62%
    10:00 +22°C° 0 mm 1 mps 677 mmHg 54%
    11:00 +23°C° 0 mm 1 mps 677 mmHg 51%
    12:00 +24°C° 0 mm 1 mps 678 mmHg 47%
    13:00 +25°C° 0 mm 2 mps 678 mmHg 43%
    14:00 +25°C° 0 mm 2 mps 678 mmHg 42%
    15:00 +25°C° 0 mm 2 mps 678 mmHg 41%
    16:00 +25°C° 0 mm 3 mps 678 mmHg 39%
    17:00 +24°C° 0 mm 3 mps 678 mmHg 45%
    18:00 +22°C° 0 mm 3 mps 677 mmHg 51%
    19:00 +22°C° 0 mm 3 mps 677 mmHg 56%
    20:00 +19°C° 0 mm 2 mps 677 mmHg 66%
    21:00 +16°C° 0 mm 2 mps 676 mmHg 77%
    22:00 +14°C° 0 mm 1 mps 676 mmHg 87%
    23:00 +13°C° 0 mm 1 mps 676 mmHg 87%

    25 July, Thursday

    Time Temperature Precipitation Wind Pressure Humidity
    00:00 +13°C° 0 mm 1 mps 676 mmHg 87%
    01:00 +13°C° 0 mm 1 mps 676 mmHg 87%
    02:00 +13°C° 0 mm 1 mps 676 mmHg 88%
    03:00 +12°C° 0 mm 1 mps 676 mmHg 88%
    04:00 +12°C° 0 mm 1 mps 676 mmHg 89%
    05:00 +14°C° 0 mm 1 mps 677 mmHg 82%
    06:00 +16°C° 0 mm 1 mps 677 mmHg 75%
    07:00 +18°C° 0 mm 2 mps 678 mmHg 68%
    08:00 +19°C° 0 mm 2 mps 679 mmHg 64%
    09:00 +20°C° 0 mm 3 mps 679 mmHg 60%
    10:00 +21°C° 0 mm 3 mps 679 mmHg 56%
    11:00 +22°C° 0 mm 3 mps 679 mmHg 55%
    12:00 +23°C° 0 mm 4 mps 680 mmHg 54%
    13:00 +26°C° 0 mm 4 mps 680 mmHg 53%
    14:00 +26°C° 0 mm 4 mps 680 mmHg 54%
    15:00 +26°C° 0 mm 4 mps 680 mmHg 55%
    16:00 +26°C° 0 mm 4 mps 680 mmHg 56%
    17:00 +25°C° 0.1 mm 4 mps 680 mmHg 61%
    18:00 +25°C° 0.1 mm 4 mps 679 mmHg 65%
    19:00 +24°C° 0.1 mm 3 mps 679 mmHg 69%
    20:00 +21°C° 0 mm 3 mps 679 mmHg 77%
    21:00 +18°C° 0 mm 2 mps 678 mmHg 84%
    22:00 +16°C° 0 mm 1 mps 678 mmHg 92%
    23:00 +15°C° 0 mm 1 mps 678 mmHg 93%
    Show more